• In France
  • List of Countries
  • For 7 days
  • Water Temperature
  • Satellite Maps
  • Weather Map
  • Weather Widgets
  • user-avatar
    Login

    Hourly Weather Lapeki

    Today, 21 May, Monday

    Time Temperature Precipitation Wind Pressure Humidity
    00:00 +7°C° 0 mm 2 mps 754 mmHg 80%
    01:00 +7°C° 0 mm 2 mps 755 mmHg 80%
    02:00 +6°C° 0 mm 2 mps 755 mmHg 80%
    03:00 +6°C° 0 mm 2 mps 755 mmHg 79%
    04:00 +6°C° 0 mm 2 mps 756 mmHg 78%
    05:00 +6°C° 0 mm 2 mps 756 mmHg 77%
    06:00 +9°C° 0 mm 3 mps 756 mmHg 69%
    07:00 +11°C° 0 mm 3 mps 756 mmHg 61%
    08:00 +13°C° 0 mm 4 mps 756 mmHg 54%
    09:00 +15°C° 0 mm 4 mps 756 mmHg 50%
    10:00 +17°C° 0 mm 4 mps 756 mmHg 45%
    11:00 +19°C° 0 mm 5 mps 756 mmHg 41%
    12:00 +19°C° 0 mm 5 mps 756 mmHg 40%
    13:00 +20°C° 0 mm 5 mps 756 mmHg 39%
    14:00 +21°C° 0 mm 5 mps 756 mmHg 38%
    15:00 +20°C° 0 mm 4 mps 755 mmHg 41%
    16:00 +20°C° 0 mm 4 mps 755 mmHg 44%
    17:00 +20°C° 0 mm 3 mps 755 mmHg 47%
    18:00 +18°C° 0 mm 3 mps 755 mmHg 55%
    19:00 +16°C° 0 mm 3 mps 755 mmHg 63%
    20:00 +13°C° 0 mm 2 mps 755 mmHg 70%
    21:00 +13°C° 0 mm 2 mps 755 mmHg 71%
    22:00 +12°C° 0 mm 2 mps 755 mmHg 73%
    23:00 +12°C° 0 mm 2 mps 755 mmHg 74%

    Tomorrow, 22 May, Tuesday

    Time Temperature Precipitation Wind Pressure Humidity
    00:00 +12°C° 0 mm 2 mps 755 mmHg 74%
    01:00 +12°C° 0 mm 2 mps 755 mmHg 74%
    02:00 +12°C° 0 mm 2 mps 755 mmHg 73%
    03:00 +12°C° 0 mm 2 mps 755 mmHg 75%
    04:00 +12°C° 0 mm 2 mps 755 mmHg 76%
    05:00 +12°C° 0 mm 2 mps 754 mmHg 77%
    06:00 +12°C° 0.1 mm 2 mps 754 mmHg 79%
    07:00 +12°C° 0.1 mm 2 mps 754 mmHg 81%
    08:00 +11°C° 0.1 mm 3 mps 754 mmHg 83%
    09:00 +12°C° 0 mm 3 mps 754 mmHg 82%
    10:00 +13°C° 0 mm 3 mps 754 mmHg 81%
    11:00 +14°C° 0 mm 3 mps 754 mmHg 80%
    12:00 +14°C° 0 mm 3 mps 754 mmHg 80%
    13:00 +15°C° 0 mm 2 mps 753 mmHg 80%
    14:00 +16°C° 0 mm 2 mps 753 mmHg 79%
    15:00 +16°C° 0.1 mm 2 mps 753 mmHg 80%
    16:00 +16°C° 0.1 mm 2 mps 753 mmHg 80%
    17:00 +17°C° 0.1 mm 2 mps 752 mmHg 80%
    18:00 +15°C° 0 mm 2 mps 752 mmHg 85%
    19:00 +14°C° 0 mm 2 mps 752 mmHg 89%
    20:00 +13°C° 0 mm 2 mps 752 mmHg 94%
    21:00 +13°C° 0 mm 2 mps 752 mmHg 95%
    22:00 +12°C° 0 mm 2 mps 752 mmHg 95%
    23:00 +10°C° 0 mm 2 mps 752 mmHg 96%

    Day after tomorrow, 23 May, Wednesday

    Time Temperature Precipitation Wind Pressure Humidity
    00:00 +10°C° 0 mm 2 mps 752 mmHg 96%
    01:00 +10°C° 0 mm 2 mps 752 mmHg 96%
    02:00 +10°C° 0 mm 2 mps 752 mmHg 96%
    03:00 +10°C° 0 mm 2 mps 752 mmHg 96%
    04:00 +10°C° 0 mm 2 mps 752 mmHg 96%
    05:00 +12°C° 0 mm 2 mps 752 mmHg 95%
    06:00 +13°C° 0 mm 3 mps 752 mmHg 89%
    07:00 +14°C° 0 mm 3 mps 752 mmHg 83%
    08:00 +17°C° 0 mm 3 mps 752 mmHg 78%
    09:00 +19°C° 0.2 mm 4 mps 752 mmHg 74%
    10:00 +20°C° 0.2 mm 4 mps 752 mmHg 71%
    11:00 +21°C° 0.2 mm 4 mps 752 mmHg 68%
    12:00 +21°C° 0.5 mm 4 mps 752 mmHg 66%
    13:00 +22°C° 0.5 mm 4 mps 751 mmHg 65%
    14:00 +22°C° 0.5 mm 4 mps 751 mmHg 63%
    15:00 +22°C° 0.2 mm 3 mps 751 mmHg 62%
    16:00 +22°C° 0.2 mm 3 mps 751 mmHg 62%
    17:00 +22°C° 0.2 mm 3 mps 751 mmHg 62%
    18:00 +20°C° 0 mm 2 mps 751 mmHg 69%
    19:00 +18°C° 0 mm 2 mps 751 mmHg 77%
    20:00 +16°C° 0 mm 2 mps 751 mmHg 84%
    21:00 +15°C° 0 mm 2 mps 751 mmHg 88%
    22:00 +14°C° 0 mm 2 mps 752 mmHg 91%
    23:00 +13°C° 0 mm 2 mps 752 mmHg 95%

    24 May, Thursday

    Time Temperature Precipitation Wind Pressure Humidity
    00:00 +12°C° 0 mm 2 mps 752 mmHg 95%
    01:00 +12°C° 0 mm 2 mps 752 mmHg 96%
    02:00 +12°C° 0 mm 2 mps 752 mmHg 97%
    03:00 +12°C° 0 mm 2 mps 752 mmHg 96%
    04:00 +12°C° 0 mm 2 mps 753 mmHg 96%
    05:00 +12°C° 0 mm 2 mps 753 mmHg 96%
    06:00 +14°C° 0 mm 2 mps 753 mmHg 89%
    07:00 +16°C° 0 mm 3 mps 753 mmHg 82%
    08:00 +17°C° 0 mm 3 mps 753 mmHg 74%
    09:00 +19°C° 0 mm 3 mps 753 mmHg 68%
    10:00 +20°C° 0 mm 3 mps 753 mmHg 62%
    11:00 +21°C° 0 mm 4 mps 753 mmHg 56%
    12:00 +22°C° 0 mm 4 mps 753 mmHg 54%
    13:00 +22°C° 0 mm 4 mps 753 mmHg 52%
    14:00 +23°C° 0 mm 4 mps 753 mmHg 50%
    15:00 +22°C° 0.1 mm 4 mps 753 mmHg 55%
    16:00 +21°C° 0.1 mm 4 mps 753 mmHg 60%
    17:00 +21°C° 0.1 mm 5 mps 753 mmHg 66%
    18:00 +19°C° 0 mm 4 mps 754 mmHg 71%
    19:00 +17°C° 0 mm 4 mps 754 mmHg 77%
    20:00 +15°C° 0 mm 4 mps 754 mmHg 82%
    21:00 +14°C° 0 mm 4 mps 755 mmHg 83%
    22:00 +13°C° 0 mm 4 mps 755 mmHg 84%
    23:00 +11°C° 0 mm 4 mps 756 mmHg 84%

    25 May, Friday

    Time Temperature Precipitation Wind Pressure Humidity
    00:00 +11°C° 0 mm 4 mps 756 mmHg 85%
    01:00 +10°C° 0 mm 3 mps 756 mmHg 86%
    02:00 +10°C° 0 mm 3 mps 757 mmHg 86%
    03:00 +8°C° 0 mm 4 mps 757 mmHg 82%
    04:00 +8°C° 0 mm 4 mps 757 mmHg 78%
    05:00 +8°C° 0 mm 4 mps 758 mmHg 74%
    06:00 +10°C° 0 mm 4 mps 758 mmHg 67%
    07:00 +10°C° 0 mm 5 mps 758 mmHg 61%
    08:00 +12°C° 0 mm 5 mps 758 mmHg 54%
    09:00 +14°C° 0 mm 5 mps 758 mmHg 50%
    10:00 +15°C° 0 mm 5 mps 758 mmHg 46%
    11:00 +16°C° 0 mm 5 mps 758 mmHg 42%
    12:00 +16°C° 0 mm 5 mps 758 mmHg 41%
    13:00 +17°C° 0 mm 5 mps 758 mmHg 40%
    14:00 +19°C° 0 mm 5 mps 758 mmHg 39%
    15:00 +17°C° 0 mm 5 mps 758 mmHg 41%
    16:00 +18°C° 0 mm 4 mps 758 mmHg 44%
    17:00 +18°C° 0 mm 4 mps 758 mmHg 47%
    18:00 +15°C° 0 mm 4 mps 758 mmHg 53%
    19:00 +13°C° 0 mm 3 mps 758 mmHg 59%
    20:00 +11°C° 0 mm 3 mps 758 mmHg 66%
    21:00 +11°C° 0 mm 3 mps 759 mmHg 68%
    22:00 +10°C° 0 mm 3 mps 759 mmHg 70%
    23:00 +9°C° 0 mm 3 mps 759 mmHg 72%

    26 May, Saturday

    Time Temperature Precipitation Wind Pressure Humidity
    00:00 +8°C° 0 mm 3 mps 759 mmHg 75%
    01:00 +7°C° 0 mm 3 mps 760 mmHg 78%
    02:00 +7°C° 0 mm 3 mps 760 mmHg 80%
    03:00 +7°C° 0 mm 3 mps 760 mmHg 80%
    04:00 +7°C° 0 mm 3 mps 760 mmHg 80%
    05:00 +7°C° 0 mm 3 mps 760 mmHg 79%
    06:00 +9°C° 0 mm 3 mps 760 mmHg 72%
    07:00 +11°C° 0 mm 3 mps 760 mmHg 64%
    08:00 +13°C° 0 mm 4 mps 760 mmHg 57%
    09:00 +14°C° 0 mm 4 mps 760 mmHg 53%
    10:00 +17°C° 0 mm 4 mps 760 mmHg 49%
    11:00 +18°C° 0 mm 4 mps 759 mmHg 44%
    12:00 +19°C° 0 mm 4 mps 759 mmHg 44%
    13:00 +20°C° 0 mm 4 mps 759 mmHg 43%
    14:00 +20°C° 0 mm 4 mps 759 mmHg 43%
    15:00 +20°C° 0 mm 3 mps 758 mmHg 45%
    16:00 +20°C° 0 mm 3 mps 758 mmHg 47%
    17:00 +20°C° 0 mm 3 mps 758 mmHg 50%
    18:00 +18°C° 0 mm 3 mps 757 mmHg 58%
    19:00 +16°C° 0 mm 2 mps 757 mmHg 66%
    20:00 +14°C° 0 mm 2 mps 757 mmHg 74%
    21:00 +13°C° 0 mm 2 mps 757 mmHg 76%
    22:00 +12°C° 0 mm 2 mps 758 mmHg 78%
    23:00 +12°C° 0 mm 2 mps 758 mmHg 80%
    Show more